This is the latest recevied weather packets stored in our database for station/object KD1KE. If no packets are shown the sender has not sent any weather packets the latest 10 day(s).
| Time | Temp. | Humidity | Pressure | Rain* | Wind** | Luminosity | Snow |
|---|---|---|---|---|---|---|---|
| 1777435203 | 6.11° C | 51% | 1018.7 hPa | 0 mm | - | - | - |
| 1777434871 | 6.67° C | 50% | 1018.8 hPa | 0 mm | - | - | - |
| 1777434543 | 6.67° C | 53% | 1018.8 hPa | 0 mm | - | - | - |
| 1777434332 | 6.11° C | 50% | 1018.9 hPa | 0 mm | - | - | - |
| 1777433885 | 6.11° C | 51% | 1019 hPa | 0 mm | - | - | - |
| 1777433258 | 6.11° C | 54% | 1019.2 hPa | 0 mm | - | - | - |
| 1777433226 | 6.11° C | 54% | 1019.2 hPa | 0 mm | - | - | - |
| 1777432714 | 5.56° C | 52% | 1019.3 hPa | 0 mm | - | - | - |
| 1777432566 | 5.56° C | 53% | 1019.3 hPa | 0 mm | - | - | - |
| 1777432176 | 6.11° C | 55% | 1019.4 hPa | 0 mm | - | - | - |
| 1777431906 | 6.11° C | 52% | 1019.5 hPa | 0 mm | - | - | - |
| 1777431635 | 6.11° C | 53% | 1019.6 hPa | 0 mm | - | - | - |
| 1777431247 | 6.11° C | 55% | 1019.6 hPa | 0 mm | - | - | - |
| 1777431096 | 6.11° C | 52% | 1019.7 hPa | 0 mm | - | - | - |
| 1777430588 | 6.67° C | 52% | 1019.6 hPa | 0 mm | - | - | - |
| 1777430557 | 6.67° C | 54% | 1019.6 hPa | 0 mm | - | - | - |
| 1777430017 | 6.67° C | 48% | 1019.7 hPa | 0 mm | - | - | - |
| 1777429929 | 6.67° C | 49% | 1019.7 hPa | 0 mm | - | - | - |
| 1777429478 | 6.67° C | 52% | 1019.8 hPa | 0 mm | - | - | - |
| 1777429270 | 6.67° C | 49% | 1019.7 hPa | 0 mm | - | - | - |
| 1777428938 | 6.67° C | 50% | 1019.7 hPa | 0 mm | - | - | - |
| 1777428610 | 6.67° C | 50% | 1019.7 hPa | 0 mm | - | - | - |
| 1777428400 | 6.67° C | 50% | 1019.8 hPa | 0 mm | - | - | - |
| 1777427951 | 6.67° C | 51% | 1019.8 hPa | 0 mm | - | - | - |
| 1777427858 | 6.67° C | 53% | 1019.9 hPa | 0 mm | - | - | - |
* Rain latest hour (hover to see other rain measurements)
** Current wind speed in m/s (hover to see current wind gust speed)